Weather History for Ames, IA

Change the Weather History Date:

Wednesday, November 7, 2012

  Actual Average Record
Temperature  
Mean Temperature 38 °F 41 °F  
Max Temperature 45 °F 51 °F 77 °F (1980)
Min Temperature 30 °F 31 °F 17 °F (2007)
Degree Days  
Heating Degree Days 27 24  
Month to date heating degree days 158 157  
Since 1 July heating degree days 810 753  
Cooling Degree Days 0 0  
Month to date cooling degree days 0 0  
Year to date cooling degree days 1067 752  
Moisture  
Dew Point 33 °F    
Average Humidity 77    
Maximum Humidity 92    
Minimum Humidity 62    
Precipitation  
Precipitation 0.01 in 0.09 in 0.29 in (1991)
Month to date precipitation 0.27 0.67  
Sea Level Pressure  
Sea Level Pressure 30.11 in    
Wind  
Wind Speed 7 mph (North)    
Max Wind Speed 16 mph    
Max Gust Speed 30 mph    
Visibility 10 miles    
Events      
T = Trace of Precipitation, MM = Missing Value Source: NWS Daily Summary

Daily Weather History Graph

Daily Weather History Graph

Search for Another Location

Airport:

Trip Planner

Search our weather history database for the weather conditions in past years. The results will help you decide how hot, cold, wet, or windy it might be!

Date:

Astronomy

Nov. 07, 2012 Rise Set
Actual Time 6:55 AM CST 5:00 PM CST
Civil Twilight 6:25 AM CST 5:30 PM CST
Nautical Twilight 5:52 AM CST 6:03 PM CST
Astronomical Twilight 5:19 AM CST 6:36 PM CST
Moon No Moon Rise 1:16 PM CST (11/7)
Length of Visible Light 11h 04m
Length of Day
10h 05m
Last Quarter, 43% of the Moon is Illuminated
Nov 7
Last Quarter
Nov 13
New
Nov 20
First Quarter
Nov 28
Full
Dec 6
Last Quarter

Hourly Weather History & Observations

Time (CST) Temp. Windchill Dew Point Humidity Pressure Visibility Wind Dir Wind Speed Gust Speed Precip Events Conditions
12:53 AM 43.0 °F 35.4 °F 35.1 °F 74% 30.00 in 10.0 mi NW 16.1 mph 26.5 mph N/A   Overcast
1:53 AM 39.9 °F 31.8 °F 37.0 °F 89% 30.03 in 10.0 mi NNW 15.0 mph - 0.01 in   Overcast
2:53 AM 39.9 °F 33.4 °F 36.0 °F 86% 30.04 in 10.0 mi NNW 10.4 mph - N/A   Overcast
3:24 AM 39.2 °F 32.5 °F 37.4 °F 93% 30.04 in 10.0 mi NNW 10.4 mph - N/A   Overcast
3:36 AM 39.2 °F 32.0 °F 35.6 °F 87% 30.04 in 10.0 mi NNW 11.5 mph - N/A   Overcast
3:53 AM 39.9 °F 32.5 °F 36.0 °F 86% 30.05 in 10.0 mi NNW 12.7 mph - N/A   Overcast
4:53 AM 39.9 °F 32.5 °F 36.0 °F 86% 30.07 in 10.0 mi NNW 12.7 mph - N/A   Overcast
5:53 AM 39.0 °F 32.8 °F 36.0 °F 89% 30.09 in 10.0 mi NNW 9.2 mph - N/A   Overcast
6:53 AM 37.9 °F 32.1 °F 35.1 °F 89% 30.12 in 10.0 mi NNW 8.1 mph - N/A   Overcast
7:53 AM 39.0 °F 33.4 °F 36.0 °F 89% 30.13 in 10.0 mi NNW 8.1 mph - N/A   Clear
8:53 AM 42.1 °F 36.1 °F 36.0 °F 79% 30.15 in 10.0 mi NNW 10.4 mph - N/A   Partly Cloudy
9:30 AM 42.8 °F 38.0 °F 35.6 °F 76% 30.14 in 10.0 mi North 8.1 mph - N/A   Overcast
9:53 AM 43.0 °F 39.5 °F 35.1 °F 74% 30.16 in 10.0 mi North 5.8 mph - N/A   Overcast
10:53 AM 44.1 °F 40.8 °F 34.0 °F 68% 30.16 in 10.0 mi North 5.8 mph - N/A   Overcast
11:17 AM 44.6 °F 43.1 °F 33.8 °F 66% 30.15 in 10.0 mi North 3.5 mph - N/A   Overcast
11:31 AM 44.6 °F 40.7 °F 32.0 °F 61% 30.15 in 10.0 mi North 6.9 mph - N/A   Overcast
11:53 AM 44.1 °F 41.5 °F 33.1 °F 65% 30.15 in 10.0 mi NNW 4.6 mph - N/A   Overcast
1:53 PM 44.1 °F - 32.0 °F 63% 30.12 in 10.0 mi Calm Calm - N/A   Overcast
2:53 PM 44.1 °F 42.5 °F 32.0 °F 63% 30.12 in 10.0 mi North 3.5 mph - N/A   Overcast
3:53 PM 44.1 °F - 33.1 °F 65% 30.13 in 10.0 mi Calm Calm - N/A   Overcast
5:53 PM 39.0 °F 35.7 °F 32.0 °F 76% 30.12 in 10.0 mi ESE 4.6 mph - N/A   Partly Cloudy
6:53 PM 34.0 °F 31.0 °F 30.0 °F 85% 30.13 in 10.0 mi ESE 3.5 mph - N/A   Clear
7:53 PM 35.1 °F 32.2 °F 30.0 °F 82% 30.12 in 10.0 mi SE 3.5 mph - N/A   Clear
8:53 PM 32.0 °F 28.7 °F 28.9 °F 88% 30.13 in 10.0 mi SE 3.5 mph - N/A   Clear
9:53 PM 32.0 °F 27.5 °F 28.9 °F 88% 30.13 in 10.0 mi SSE 4.6 mph - N/A   Clear
10:53 PM 32.0 °F - 28.9 °F 88% 30.13 in 10.0 mi Calm Calm - N/A   Clear
11:53 PM 30.0 °F - 28.0 °F 92% 30.13 in 9.0 mi Calm Calm - N/A   Clear